| time (UTC) | temp C | wind direction | speed KPH | gust KPH | rain 1hr cm | rain 24hr cm | rain mn cm | humidity % | barometer mb |
| 20260831110232 | 16 | 174 | 0.0 | 0.0 | 0.00 | 0.00 | 0.00 | 99 | 1018.6 |
| 20260831105730 | 15 | 174 | 0.0 | 0.0 | 0.00 | 0.00 | 0.00 | 99 | 1018.6 |
| 20260831105226 | 16 | 174 | 0.0 | 0.0 | 0.00 | 0.00 | 0.00 | 99 | 1018.5 |
| 20260831104721 | 16 | 174 | 0.0 | 0.0 | 0.00 | 0.00 | 0.00 | 99 | 1018.3 |
| 20260831104218 | 16 | 174 | 1.6 | 3.2 | 0.00 | 0.00 | 0.00 | 99 | 1018.5 |
| 20260831103717 | 16 | 174 | 1.6 | 1.6 | 0.00 | 0.00 | 0.00 | 99 | 1018.3 |
| 20260831103213 | 16 | 173 | 0.0 | 0.0 | 0.00 | 0.00 | 0.00 | 99 | 1018.1 |
| 20260831102712 | 16 | 173 | 0.0 | 1.6 | 0.00 | 0.00 | 0.00 | 99 | 1018.0 |
| 20260831102208 | 16 | 173 | 0.0 | 0.0 | 0.00 | 0.00 | 0.00 | 99 | 1018.1 |
| 20260831101703 | 16 | 173 | 0.0 | 0.0 | 0.00 | 0.00 | 0.00 | 99 | 1018.2 |
| 20260831101158 | 16 | 173 | 0.0 | 0.0 | 0.00 | 0.00 | 0.00 | 99 | 1018.2 |
| 20260831100654 | 16 | 173 | 0.0 | 0.0 | 0.00 | 0.00 | 0.00 | 99 | 1018.2 |
| 20260831100150 | 16 | 173 | 1.6 | 1.6 | 0.00 | 0.00 | 0.00 | 99 | 1018.2 |
| 20260831095648 | 16 | 178 | 0.0 | 1.6 | 0.00 | 0.00 | 0.00 | 99 | 1018.2 |
| 20260831095143 | 16 | 178 | 0.0 | 0.0 | 0.00 | 0.00 | 0.00 | 99 | 1018.2 |
| 20260831094638 | 16 | 178 | 0.0 | 0.0 | 0.00 | 0.00 | 0.00 | 99 | 1018.1 |
| 20260831094135 | 16 | 178 | 0.0 | 0.0 | 0.00 | 0.00 | 0.00 | 99 | 1018.2 |
| 20260831093630 | 16 | 178 | 0.0 | 0.0 | 0.00 | 0.00 | 0.00 | 99 | 1018.3 |
| 20260831093126 | 16 | 178 | 0.0 | 0.0 | 0.00 | 0.00 | 0.00 | 99 | 1018.1 |
| 20260831092622 | 16 | 178 | 0.0 | 0.0 | 0.00 | 0.00 | 0.00 | 99 | 1018.1 |
| 20260831092117 | 16 | 179 | 1.6 | 1.6 | 0.00 | 0.00 | 0.00 | 99 | 1018.1 |
| 20260831091617 | 16 | 164 | 0.0 | 0.0 | 0.00 | 0.00 | 0.00 | 99 | 1018.0 |
| 20260831091112 | 16 | 164 | 0.0 | 0.0 | 0.00 | 0.00 | 0.00 | 99 | 1018.3 |
| 20260831090608 | 16 | 164 | 0.0 | 0.0 | 0.00 | 0.00 | 0.00 | 99 | 1018.2 |
| 20260831090104 | 16 | 164 | 0.0 | 0.0 | 0.00 | 0.00 | 0.00 | 99 | 1018.2 |
| 20260831085559 | 16 | 164 | 0.0 | 0.0 | 0.00 | 0.00 | 0.00 | 99 | 1018.2 |
| 20260831085054 | 16 | 164 | 0.0 | 0.0 | 0.00 | 0.00 | 0.00 | 99 | 1018.3 |
| 20260831084550 | 16 | 164 | 0.0 | 0.0 | 0.00 | 0.00 | 0.00 | 99 | 1018.1 |
| 20260831084046 | 16 | 164 | 0.0 | 0.0 | 0.00 | 0.00 | 0.00 | 99 | 1018.3 |
| 20260831083541 | 16 | 164 | 0.0 | 0.0 | 0.00 | 0.00 | 0.00 | 99 | 1018.1 |
| 20260831083036 | 16 | 164 | 0.0 | 0.0 | 0.00 | 0.00 | 0.00 | 99 | 1018.1 |
| 20260831082529 | 16 | 164 | 0.0 | 0.0 | 0.00 | 0.00 | 0.00 | 99 | 1018.3 |
| 20260831082024 | 17 | 164 | 0.0 | 0.0 | 0.00 | 0.00 | 0.00 | 99 | 1018.4 |
| 20260831081520 | 17 | 164 | 0.0 | 0.0 | 0.00 | 0.00 | 0.00 | 99 | 1018.2 |
| 20260831081016 | 17 | 164 | 0.0 | 0.0 | 0.00 | 0.00 | 0.00 | 98 | 1018.3 |
| 20260831080510 | 17 | 164 | 0.0 | 0.0 | 0.00 | 0.00 | 0.00 | 98 | 1018.0 |
| 20260831080007 | 17 | 164 | 0.0 | 0.0 | 0.00 | 0.00 | 0.00 | 98 | 1018.0 |
| 20260831075501 | 17 | 164 | 0.0 | 0.0 | 0.00 | 0.00 | 0.00 | 98 | 1018.0 |
| 20260831074957 | 17 | 164 | 0.0 | 0.0 | 0.00 | 0.00 | 0.00 | 98 | 1018.1 |
| 20260831074456 | 17 | 164 | 0.0 | 0.0 | 0.00 | 0.00 | 0.00 | 97 | 1018.2 |
| 20260831073951 | 17 | 164 | 0.0 | 0.0 | 0.00 | 0.00 | 0.00 | 98 | 1018.0 |
| 20260831073450 | 17 | 164 | 0.0 | 0.0 | 0.00 | 0.00 | 0.00 | 98 | 1017.9 |
| 20260831072949 | 17 | 164 | 0.0 | 0.0 | 0.00 | 0.00 | 0.00 | 97 | 1018.1 |
| 20260831072445 | 17 | 164 | 0.0 | 0.0 | 0.00 | 0.00 | 0.00 | 97 | 1017.9 |
| 20260831071942 | 17 | 164 | 0.0 | 0.0 | 0.00 | 0.00 | 0.00 | 97 | 1018.1 |
| 20260831071441 | 17 | 164 | 0.0 | 0.0 | 0.00 | 0.00 | 0.00 | 97 | 1018.2 |
| 20260831070935 | 17 | 165 | 0.0 | 0.0 | 0.00 | 0.00 | 0.00 | 97 | 1018.2 |
| 20260831070430 | 17 | 165 | 0.0 | 0.0 | 0.00 | 0.00 | 0.00 | 97 | 1018.2 |
| 20260831065929 | 17 | 165 | 0.0 | 0.0 | 0.00 | 0.00 | 0.00 | 97 | 1018.0 |
| 20260831065427 | 17 | 165 | 0.0 | 0.0 | 0.00 | 0.00 | 0.00 | 98 | 1018.0 |
| 20260831064922 | 17 | 165 | 0.0 | 0.0 | 0.00 | 0.00 | 0.00 | 98 | 1017.9 |
| 20260831064417 | 17 | 165 | 0.0 | 0.0 | 0.00 | 0.00 | 0.00 | 98 | 1018.0 |
| 20260831063913 | 17 | 165 | 0.0 | 0.0 | 0.00 | 0.00 | 0.00 | 98 | 1018.2 |
| 20260831063408 | 17 | 165 | 0.0 | 0.0 | 0.00 | 0.00 | 0.00 | 98 | 1018.2 |
| 20260831062902 | 17 | 165 | 0.0 | 0.0 | 0.00 | 0.00 | 0.00 | 98 | 1018.2 |
| 20260831062357 | 17 | 165 | 0.0 | 0.0 | 0.00 | 0.00 | 0.00 | 99 | 1018.0 |
| 20260831061855 | 17 | 165 | 0.0 | 0.0 | 0.00 | 0.00 | 0.00 | 99 | 1018.0 |
| 20260831061349 | 17 | 165 | 0.0 | 0.0 | 0.00 | 0.00 | 0.00 | 99 | 1018.2 |
| 20260831060846 | 17 | 165 | 0.0 | 0.0 | 0.00 | 0.00 | 0.00 | 99 | 1018.1 |
| 20260831060345 | 17 | 165 | 0.0 | 0.0 | 0.00 | 0.00 | 0.00 | 99 | 1018.2 |
| 20260831055839 | 17 | 165 | 0.0 | 0.0 | 0.00 | 0.00 | 0.00 | 99 | 1018.2 |
| 20260831055335 | 17 | 165 | 0.0 | 0.0 | 0.00 | 0.00 | 0.00 | 99 | 1018.3 |
| 20260831054830 | 17 | 165 | 0.0 | 0.0 | 0.00 | 0.00 | 0.00 | 99 | 1018.3 |
| 20260831054325 | 17 | 165 | 0.0 | 0.0 | 0.00 | 0.00 | 0.00 | 99 | 1018.3 |
| 20260831053823 | 17 | 165 | 0.0 | 0.0 | 0.00 | 0.00 | 0.00 | 99 | 1018.1 |
| 20260831053317 | 17 | 165 | 0.0 | 0.0 | 0.00 | 0.00 | 0.00 | 98 | 1018.2 |
| 20260831052812 | 17 | 165 | 0.0 | 0.0 | 0.00 | 0.00 | 0.00 | 98 | 1018.3 |
| 20260831052311 | 17 | 165 | 0.0 | 0.0 | 0.00 | 0.00 | 0.00 | 98 | 1018.0 |
| 20260831051809 | 17 | 165 | 0.0 | 0.0 | 0.00 | 0.00 | 0.00 | 98 | 1018.2 |
| 20260831051308 | 17 | 165 | 0.0 | 0.0 | 0.00 | 0.00 | 0.00 | 98 | 1018.1 |
| 20260831050803 | 17 | 165 | 0.0 | 0.0 | 0.00 | 0.00 | 0.00 | 97 | 1018.3 |
| 20260831050301 | 17 | 165 | 0.0 | 0.0 | 0.00 | 0.00 | 0.00 | 97 | 1018.2 |
| 20260831045750 | 17 | 165 | 0.0 | 0.0 | 0.00 | 0.00 | 0.00 | 97 | 1018.2 |
| 20260831045245 | 17 | 165 | 0.0 | 0.0 | 0.00 | 0.00 | 0.00 | 97 | 1018.0 |
| 20260831044740 | 18 | 165 | 0.0 | 0.0 | 0.00 | 0.00 | 0.00 | 96 | 1018.2 |
| 20260831044234 | 18 | 182 | 0.0 | 0.0 | 0.00 | 0.00 | 0.00 | 97 | 1018.0 |
| 20260831043731 | 18 | 182 | 0.0 | 0.0 | 0.00 | 0.00 | 0.00 | 97 | 1018.3 |
| 20260831043231 | 18 | 182 | 1.6 | 1.6 | 0.00 | 0.00 | 0.00 | 97 | 1018.3 |
| 20260831042725 | 18 | 182 | 0.0 | 0.0 | 0.00 | 0.00 | 0.00 | 96 | 1018.2 |
| 20260831042220 | 18 | 194 | 0.0 | 0.0 | 0.00 | 0.00 | 0.00 | 97 | 1018.2 |
| 20260831041715 | 18 | 194 | 0.0 | 0.0 | 0.00 | 0.00 | 0.00 | 97 | 1018.3 |
| 20260831041214 | 18 | 194 | 0.0 | 0.0 | 0.00 | 0.00 | 0.00 | 97 | 1018.4 |
| 20260831040709 | 18 | 194 | 0.0 | 0.0 | 0.00 | 0.00 | 0.00 | 98 | 1018.2 |
| 20260831040208 | 18 | 193 | 0.0 | 0.0 | 0.00 | 0.00 | 0.00 | 98 | 1018.1 |
| 20260831035706 | 18 | 183 | 1.6 | 1.6 | 0.00 | 0.00 | 0.00 | 98 | 1018.3 |
| 20260831035156 | 18 | 195 | 1.6 | 1.6 | 0.00 | 0.00 | 0.00 | 98 | 1018.5 |
| 20260831034655 | 18 | 195 | 0.0 | 0.0 | 0.00 | 0.00 | 0.00 | 99 | 1018.3 |
| 20260831034150 | 18 | 195 | 0.0 | 0.0 | 0.00 | 0.00 | 0.00 | 98 | 1018.1 |
| 20260831033646 | 18 | 195 | 0.0 | 0.0 | 0.00 | 0.00 | 0.00 | 98 | 1018.2 |
| 20260831033140 | 18 | 195 | 1.6 | 3.2 | 0.00 | 0.00 | 0.00 | 98 | 1018.1 |
| 20260831032640 | 18 | 195 | 0.0 | 1.6 | 0.00 | 0.00 | 0.00 | 98 | 1018.1 |
| 20260831032136 | 18 | 195 | 0.0 | 0.0 | 0.00 | 0.00 | 0.00 | 98 | 1018.4 |
| 20260831031636 | 18 | 195 | 0.0 | 0.0 | 0.00 | 0.00 | 0.00 | 98 | 1018.4 |
| 20260831031135 | 18 | 195 | 0.0 | 0.0 | 0.00 | 0.00 | 0.00 | 98 | 1018.4 |
| 20260831030634 | 18 | 195 | 0.0 | 0.0 | 0.00 | 0.00 | 0.00 | 98 | 1018.0 |
| 20260831030133 | 18 | 195 | 0.0 | 1.6 | 0.00 | 0.00 | 0.00 | 98 | 1018.4 |
| 20260831025632 | 18 | 195 | 0.0 | 0.0 | 0.00 | 0.00 | 0.00 | 99 | 1018.3 |
| 20260831025127 | 18 | 195 | 0.0 | 1.6 | 0.00 | 0.00 | 0.00 | 99 | 1018.1 |
| 20260831024623 | 18 | 195 | 0.0 | 0.0 | 0.00 | 0.00 | 0.00 | 99 | 1018.4 |
| 20260831024122 | 18 | 194 | 0.0 | 0.0 | 0.00 | 0.00 | 0.00 | 98 | 1018.3 |
| 20260831023620 | 18 | 194 | 0.0 | 0.0 | 0.00 | 0.00 | 0.00 | 98 | 1018.4 |
| 20260831023120 | 18 | 194 | 0.0 | 0.0 | 0.00 | 0.00 | 0.00 | 98 | 1018.2 |
| 20260831022615 | 18 | 195 | 0.0 | 1.6 | 0.00 | 0.00 | 0.00 | 98 | 1018.6 |
| 20260831022110 | 18 | 195 | 0.0 | 0.0 | 0.00 | 0.00 | 0.00 | 98 | 1018.4 |
| 20260831021609 | 18 | 195 | 0.0 | 0.0 | 0.00 | 0.00 | 0.00 | 97 | 1018.5 |
| 20260831021104 | 18 | 195 | 0.0 | 0.0 | 0.00 | 0.00 | 0.00 | 97 | 1018.3 |
| 20260831020559 | 18 | 195 | 1.6 | 1.6 | 0.00 | 0.00 | 0.00 | 97 | 1018.6 |
| 20260831020054 | 18 | 195 | 0.0 | 0.0 | 0.00 | 0.00 | 0.00 | 97 | 1018.2 |
| 20260831015550 | 18 | 195 | 0.0 | 0.0 | 0.00 | 0.00 | 0.00 | 96 | 1018.5 |
| 20260831015044 | 19 | 195 | 0.0 | 0.0 | 0.00 | 0.00 | 0.00 | 96 | 1018.3 |
| 20260831014539 | 19 | 195 | 0.0 | 1.6 | 0.00 | 0.00 | 0.00 | 96 | 1018.4 |
| 20260831014035 | 19 | 195 | 0.0 | 0.0 | 0.00 | 0.00 | 0.00 | 96 | 1018.1 |
| 20260831013531 | 19 | 195 | 0.0 | 1.6 | 0.00 | 0.00 | 0.00 | 96 | 1018.4 |
| 20260831013025 | 18 | 195 | 0.0 | 0.0 | 0.00 | 0.00 | 0.00 | 97 | 1018.2 |
| 20260831012520 | 18 | 195 | 0.0 | 0.0 | 0.00 | 0.00 | 0.00 | 97 | 1018.4 |
| 20260831012015 | 19 | 195 | 0.0 | 0.0 | 0.00 | 0.00 | 0.00 | 96 | 1018.3 |
| 20260831011514 | 19 | 195 | 0.0 | 0.0 | 0.00 | 0.00 | 0.00 | 96 | 1018.2 |
| 20260831011010 | 19 | 195 | 0.0 | 0.0 | 0.00 | 0.00 | 0.00 | 96 | 1018.3 |
| 20260831010505 | 19 | 195 | 0.0 | 0.0 | 0.00 | 0.00 | 0.00 | 96 | 1018.0 |
| 20260831010002 | 19 | 195 | 0.0 | 0.0 | 0.00 | 0.00 | 0.00 | 96 | 1018.0 |
| 20260831005457 | 19 | 195 | 0.0 | 1.6 | 0.00 | 0.00 | 0.00 | 96 | 1018.0 |
| 20260831004955 | 19 | 195 | 0.0 | 0.0 | 0.00 | 0.00 | 0.00 | 96 | 1018.2 |
| 20260831004452 | 19 | 194 | 0.0 | 1.6 | 0.00 | 0.00 | 0.00 | 96 | 1017.7 |
| 20260831003947 | 19 | 194 | 0.0 | 0.0 | 0.00 | 0.00 | 0.00 | 95 | 1017.7 |
| 20260831003443 | 19 | 194 | 0.0 | 0.0 | 0.00 | 0.00 | 0.00 | 95 | 1017.9 |
| 20260831002942 | 20 | 194 | 0.0 | 0.0 | 0.00 | 0.00 | 0.00 | 95 | 1017.6 |
| 20260831002441 | 20 | 194 | 1.6 | 1.6 | 0.00 | 0.00 | 0.00 | 95 | 1017.7 |
| 20260831001937 | 20 | 194 | 1.6 | 1.6 | 0.00 | 0.00 | 0.00 | 94 | 1017.6 |
| 20260831001427 | 20 | 194 | 1.6 | 3.2 | 0.00 | 0.00 | 0.00 | 94 | 1017.5 |
| 20260831000924 | 20 | 194 | 0.0 | 1.6 | 0.00 | 0.00 | 0.00 | 94 | 1017.4 |
| 20260831000419 | 20 | 186 | 0.0 | 1.6 | 0.00 | 0.00 | 0.00 | 95 | 1017.5 |
| 20260830235912 | 20 | 179 | 0.0 | 1.6 | 0.00 | 0.00 | 0.00 | 95 | 1017.4 |
| 20260830235407 | 20 | 179 | 0.0 | 0.0 | 0.00 | 0.00 | 0.00 | 95 | 1017.1 |
| 20260830234902 | 20 | 179 | 1.6 | 1.6 | 0.00 | 0.00 | 0.00 | 95 | 1017.2 |
| 20260830234357 | 20 | 179 | 1.6 | 1.6 | 0.00 | 0.00 | 0.00 | 94 | 1017.2 |
| 20260830233853 | 20 | 176 | 1.6 | 1.6 | 0.00 | 0.00 | 0.00 | 94 | 1017.2 |
| 20260830233348 | 20 | 184 | 1.6 | 1.6 | 0.00 | 0.00 | 0.00 | 94 | 1017.0 |
| 20260830232844 | 20 | 182 | 0.0 | 1.6 | 0.00 | 0.00 | 0.00 | 93 | 1017.4 |
| 20260830232339 | 20 | 199 | 0.0 | 1.6 | 0.00 | 0.00 | 0.00 | 93 | 1017.2 |
| 20260830231836 | 20 | 175 | 1.6 | 1.6 | 0.00 | 0.00 | 0.00 | 92 | 1017.1 |
| 20260830231336 | 21 | 172 | 1.6 | 1.6 | 0.00 | 0.00 | 0.00 | 91 | 1017.3 |
| 20260830230830 | 21 | 184 | 0.0 | 0.0 | 0.00 | 0.00 | 0.00 | 92 | 1016.9 |
| 20260830230325 | 20 | 197 | 3.2 | 4.8 | 0.00 | 0.00 | 0.00 | 93 | 1016.9 |
| 20260830225819 | 20 | 137 | 0.0 | 0.0 | 0.00 | 0.00 | 0.00 | 95 | 1016.9 |
| 20260830225314 | 20 | 137 | 0.0 | 0.0 | 0.00 | 0.00 | 0.00 | 95 | 1016.7 |
| 20260830224809 | 20 | 137 | 0.0 | 0.0 | 0.00 | 0.00 | 0.00 | 95 | 1016.8 |
| 20260830224303 | 21 | 137 | 0.0 | 0.0 | 0.00 | 0.00 | 0.00 | 94 | 1017.0 |
| 20260830223800 | 21 | 137 | 0.0 | 0.0 | 0.00 | 0.00 | 0.00 | 92 | 1017.0 |
| 20260830223255 | 21 | 137 | 0.0 | 0.0 | 0.00 | 0.00 | 0.00 | 90 | 1016.8 |
| 20260830222749 | 21 | 137 | 1.6 | 3.2 | 0.00 | 0.00 | 0.00 | 89 | 1017.0 |
| 20260830222246 | 21 | 137 | 0.0 | 0.0 | 0.00 | 0.00 | 0.00 | 89 | 1016.9 |
| 20260830221740 | 21 | 137 | 0.0 | 0.0 | 0.00 | 0.00 | 0.00 | 90 | 1017.0 |
| 20260830221238 | 21 | 137 | 1.6 | 1.6 | 0.00 | 0.00 | 0.00 | 90 | 1016.7 |
| 20260830220733 | 21 | 136 | 0.0 | 0.0 | 0.00 | 0.00 | 0.00 | 91 | 1016.7 |
| 20260830220231 | 21 | 136 | 0.0 | 0.0 | 0.00 | 0.00 | 0.00 | 91 | 1016.8 |
| 20260830215730 | 22 | 136 | 0.0 | 0.0 | 0.00 | 0.00 | 0.00 | 90 | 1016.9 |
| 20260830215225 | 21 | 64 | 0.0 | 0.0 | 0.00 | 0.00 | 0.00 | 90 | 1016.8 |
| 20260830214720 | 21 | 64 | 0.0 | 0.0 | 0.00 | 0.00 | 0.00 | 90 | 1016.9 |
| 20260830214215 | 22 | 64 | 0.0 | 0.0 | 0.00 | 0.00 | 0.00 | 89 | 1016.6 |
| 20260830213714 | 22 | 64 | 0.0 | 0.0 | 0.00 | 0.00 | 0.00 | 88 | 1016.6 |
| 20260830213209 | 22 | 58 | 0.0 | 0.0 | 0.00 | 0.00 | 0.00 | 89 | 1016.7 |
| 20260830212700 | 22 | 58 | 0.0 | 0.0 | 0.00 | 0.00 | 0.00 | 89 | 1016.8 |
| 20260830212155 | 22 | 58 | 1.6 | 1.6 | 0.00 | 0.00 | 0.00 | 87 | 1016.8 |
| 20260830211654 | 22 | 58 | 0.0 | 1.6 | 0.00 | 0.00 | 0.00 | 86 | 1016.5 |
| 20260830211153 | 22 | 58 | 0.0 | 1.6 | 0.00 | 0.00 | 0.00 | 86 | 1016.7 |
| 20260830210649 | 22 | 58 | 1.6 | 1.6 | 0.00 | 0.00 | 0.00 | 86 | 1016.6 |
| 20260830210149 | 22 | 59 | 0.0 | 1.6 | 0.00 | 0.00 | 0.00 | 87 | 1016.6 |
| 20260830205646 | 22 | 99 | 1.6 | 3.2 | 0.00 | 0.00 | 0.00 | 86 | 1016.8 |
| 20260830205141 | 22 | 206 | 0.0 | 0.0 | 0.00 | 0.00 | 0.00 | 88 | 1016.7 |
| 20260830204641 | 22 | 206 | 0.0 | 0.0 | 0.00 | 0.00 | 0.00 | 86 | 1016.8 |
| 20260830204140 | 22 | 206 | 1.6 | 1.6 | 0.00 | 0.00 | 0.00 | 85 | 1016.8 |
| 20260830203636 | 23 | 206 | 0.0 | 0.0 | 0.00 | 0.00 | 0.00 | 85 | 1016.5 |
| 20260830203131 | 23 | 196 | 1.6 | 1.6 | 0.00 | 0.00 | 0.00 | 84 | 1016.9 |
| 20260830202631 | 23 | 195 | 0.0 | 1.6 | 0.00 | 0.00 | 0.00 | 83 | 1016.8 |
| 20260830202126 | 23 | 110 | 1.6 | 1.6 | 0.00 | 0.00 | 0.00 | 83 | 1016.6 |
| 20260830201625 | 24 | 151 | 1.6 | 1.6 | 0.00 | 0.00 | 0.00 | 82 | 1016.6 |
| 20260830201121 | 24 | 255 | 0.0 | 0.0 | 0.00 | 0.00 | 0.00 | 82 | 1016.7 |
| 20260830200616 | 23 | 256 | 1.6 | 1.6 | 0.00 | 0.00 | 0.00 | 83 | 1016.7 |
| 20260830200115 | 23 | 256 | 1.6 | 1.6 | 0.00 | 0.00 | 0.00 | 84 | 1016.7 |
| 20260830195611 | 23 | 237 | 1.6 | 1.6 | 0.00 | 0.00 | 0.00 | 83 | 1016.8 |
| 20260830195109 | 23 | 239 | 1.6 | 1.6 | 0.00 | 0.00 | 0.00 | 83 | 1016.7 |
| 20260830194608 | 24 | 156 | 1.6 | 1.6 | 0.00 | 0.00 | 0.00 | 82 | 1017.0 |
| 20260830194103 | 24 | 156 | 0.0 | 0.0 | 0.00 | 0.00 | 0.00 | 80 | 1017.0 |
| 20260830193602 | 24 | 178 | 1.6 | 3.2 | 0.00 | 0.00 | 0.00 | 79 | 1016.9 |
| 20260830193057 | 24 | 175 | 1.6 | 3.2 | 0.00 | 0.00 | 0.00 | 81 | 1016.8 |
| 20260830192553 | 24 | 179 | 3.2 | 4.8 | 0.00 | 0.00 | 0.00 | 78 | 1017.0 |
| 20260830192047 | 23 | 196 | 1.6 | 1.6 | 0.00 | 0.00 | 0.00 | 84 | 1017.0 |
| 20260830191542 | 23 | 195 | 3.2 | 4.8 | 0.00 | 0.00 | 0.00 | 82 | 1017.0 |
| 20260830191037 | 23 | 203 | 3.2 | 3.2 | 0.00 | 0.00 | 0.00 | 82 | 1017.1 |
| 20260830190532 | 23 | 171 | 1.6 | 3.2 | 0.00 | 0.00 | 0.00 | 81 | 1017.1 |
| 20260830190028 | 23 | 179 | 3.2 | 3.2 | 0.00 | 0.00 | 0.00 | 83 | 1017.2 |
| 20260830185521 | 23 | 139 | 1.6 | 1.6 | 0.00 | 0.00 | 0.00 | 82 | 1017.2 |
| 20260830185017 | 24 | 212 | 3.2 | 4.8 | 0.00 | 0.00 | 0.00 | 82 | 1017.5 |
| 20260830184516 | 24 | 70 | 0.0 | 0.0 | 0.00 | 0.00 | 0.00 | 83 | 1017.4 |
| 20260830184012 | 24 | 217 | 3.2 | 4.8 | 0.00 | 0.00 | 0.00 | 81 | 1017.4 |
| 20260830183511 | 25 | 56 | 0.0 | 0.0 | 0.00 | 0.00 | 0.00 | 83 | 1017.3 |
| 20260830183007 | 24 | 212 | 0.0 | 1.6 | 0.00 | 0.00 | 0.00 | 83 | 1017.3 |
| 20260830182502 | 24 | 183 | 1.6 | 3.2 | 0.00 | 0.00 | 0.00 | 83 | 1017.4 |
| 20260830181959 | 25 | 214 | 0.0 | 0.0 | 0.00 | 0.00 | 0.00 | 83 | 1017.7 |
| 20260830181454 | 25 | 214 | 1.6 | 3.2 | 0.00 | 0.00 | 0.00 | 82 | 1017.5 |
| 20260830180948 | 25 | 213 | 1.6 | 1.6 | 0.00 | 0.00 | 0.00 | 79 | 1017.7 |
| 20260830180448 | 25 | 215 | 3.2 | 3.2 | 0.00 | 0.00 | 0.00 | 80 | 1017.7 |
| 20260830175946 | 25 | 179 | 1.6 | 1.6 | 0.00 | 0.00 | 0.00 | 80 | 1017.8 |
| 20260830175441 | 25 | 194 | 0.0 | 1.6 | 0.00 | 0.00 | 0.00 | 80 | 1017.6 |
| 20260830174936 | 25 | 181 | 1.6 | 1.6 | 0.00 | 0.00 | 0.00 | 79 | 1017.5 |
| 20260830174431 | 25 | 187 | 1.6 | 1.6 | 0.00 | 0.00 | 0.00 | 81 | 1017.7 |
| 20260830173921 | 25 | 204 | 3.2 | 3.2 | 0.00 | 0.00 | 0.00 | 78 | 1017.8 |
| 20260830173416 | 25 | 222 | 3.2 | 3.2 | 0.00 | 0.00 | 0.00 | 78 | 1017.8 |
| 20260830172912 | 26 | 202 | 3.2 | 4.8 | 0.00 | 0.00 | 0.00 | 77 | 1017.7 |
| 20260830172409 | 25 | 193 | 0.0 | 1.6 | 0.00 | 0.00 | 0.00 | 78 | 1017.8 |
| 20260830171904 | 25 | 173 | 1.6 | 1.6 | 0.00 | 0.00 | 0.00 | 80 | 1017.8 |
| 20260830171359 | 25 | 215 | 1.6 | 3.2 | 0.00 | 0.00 | 0.00 | 81 | 1017.9 |
| 20260830170854 | 24 | 216 | 1.6 | 3.2 | 0.00 | 0.00 | 0.00 | 84 | 1018.1 |
| 20260830170353 | 23 | 217 | 0.0 | 0.0 | 0.00 | 0.00 | 0.00 | 81 | 1018.0 |
| 20260830165851 | 23 | 232 | 6.4 | 6.4 | 0.00 | 0.00 | 0.00 | 84 | 1018.3 |
| 20260830165348 | 23 | 162 | 1.6 | 1.6 | 0.00 | 0.00 | 0.00 | 85 | 1018.0 |
| 20260830164844 | 23 | 226 | 3.2 | 3.2 | 0.00 | 0.00 | 0.00 | 86 | 1018.2 |
| 20260830164340 | 23 | 223 | 1.6 | 1.6 | 0.00 | 0.00 | 0.00 | 83 | 1018.3 |
| 20260830163837 | 23 | 230 | 3.2 | 3.2 | 0.00 | 0.00 | 0.00 | 82 | 1018.2 |
| 20260830163332 | 24 | 181 | 1.6 | 1.6 | 0.00 | 0.00 | 0.00 | 80 | 1018.1 |
| 20260830162831 | 24 | 136 | 1.6 | 1.6 | 0.00 | 0.00 | 0.00 | 82 | 1018.3 |
| 20260830162328 | 24 | 177 | 3.2 | 4.8 | 0.00 | 0.00 | 0.00 | 82 | 1018.3 |
| 20260830161828 | 23 | 220 | 1.6 | 1.6 | 0.00 | 0.00 | 0.00 | 82 | 1018.7 |
| 20260830161327 | 24 | 129 | 3.2 | 3.2 | 0.00 | 0.00 | 0.00 | 82 | 1018.7 |
| 20260830160823 | 23 | 205 | 1.6 | 1.6 | 0.00 | 0.00 | 0.00 | 85 | 1018.6 |
| 20260830160318 | 23 | 210 | 1.6 | 3.2 | 0.00 | 0.00 | 0.00 | 81 | 1018.9 |
| 20260830155814 | 22 | 295 | 0.0 | 1.6 | 0.00 | 0.00 | 0.00 | 86 | 1018.6 |
| 20260830155311 | 22 | 232 | 1.6 | 1.6 | 0.00 | 0.00 | 0.00 | 84 | 1018.6 |
| 20260830154810 | 22 | 276 | 4.8 | 6.4 | 0.00 | 0.00 | 0.00 | 84 | 1018.7 |
| 20260830154306 | 22 | 188 | 1.6 | 1.6 | 0.00 | 0.00 | 0.00 | 84 | 1019.0 |
| 20260830153803 | 22 | 186 | 1.6 | 1.6 | 0.00 | 0.00 | 0.00 | 84 | 1019.3 |
| 20260830153258 | 22 | 145 | 0.0 | 1.6 | 0.00 | 0.00 | 0.00 | 84 | 1018.7 |
| 20260830152756 | 22 | 142 | 3.2 | 4.8 | 0.00 | 0.00 | 0.00 | 81 | 1019.0 |
| 20260830152251 | 22 | 150 | 1.6 | 3.2 | 0.00 | 0.00 | 0.00 | 79 | 1019.1 |
| 20260830151751 | 22 | 155 | 0.0 | 1.6 | 0.00 | 0.00 | 0.00 | 82 | 1019.0 |
| 20260830151250 | 22 | 119 | 0.0 | 1.6 | 0.00 | 0.00 | 0.00 | 80 | 1019.4 |
| 20260830150745 | 22 | 71 | 1.6 | 1.6 | 0.00 | 0.00 | 0.00 | 80 | 1019.1 |
| 20260830150245 | 21 | 188 | 0.0 | 1.6 | 0.00 | 0.00 | 0.00 | 81 | 1019.6 |
| 20260830145740 | 22 | 129 | 0.0 | 1.6 | 0.00 | 0.00 | 0.00 | 80 | 1019.5 |
| 20260830145235 | 22 | 221 | 3.2 | 4.8 | 0.00 | 0.00 | 0.00 | 78 | 1019.2 |
| 20260830144730 | 21 | 128 | 1.6 | 3.2 | 0.00 | 0.00 | 0.00 | 81 | 1019.4 |
| 20260830144226 | 21 | 187 | 0.0 | 1.6 | 0.00 | 0.00 | 0.00 | 82 | 1019.7 |
| 20260830143722 | 21 | 195 | 1.6 | 1.6 | 0.00 | 0.00 | 0.00 | 79 | 1019.4 |
| 20260830143220 | 21 | 192 | 1.6 | 1.6 | 0.00 | 0.00 | 0.00 | 80 | 1019.4 |
| 20260830142716 | 21 | 184 | 1.6 | 3.2 | 0.00 | 0.00 | 0.00 | 80 | 1019.3 |
| 20260830142210 | 20 | 240 | 4.8 | 6.4 | 0.00 | 0.00 | 0.00 | 79 | 1019.4 |
| 20260830141706 | 20 | 213 | 0.0 | 1.6 | 0.00 | 0.00 | 0.00 | 84 | 1019.3 |
| 20260830141201 | 21 | 129 | 0.0 | 1.6 | 0.00 | 0.00 | 0.00 | 78 | 1019.6 |
| 20260830140655 | 20 | 208 | 3.2 | 3.2 | 0.00 | 0.00 | 0.00 | 78 | 1019.7 |
| 20260830140150 | 20 | 193 | 0.0 | 1.6 | 0.00 | 0.00 | 0.00 | 83 | 1019.6 |
| 20260830135646 | 20 | 249 | 0.0 | 0.0 | 0.00 | 0.00 | 0.00 | 82 | 1019.5 |
| 20260830135141 | 20 | 248 | 0.0 | 1.6 | 0.00 | 0.00 | 0.00 | 80 | 1019.8 |
| 20260830134637 | 19 | 247 | 0.0 | 1.6 | 0.00 | 0.00 | 0.00 | 81 | 1019.8 |
| 20260830134131 | 19 | 16 | 1.6 | 1.6 | 0.00 | 0.00 | 0.00 | 84 | 1019.9 |
| 20260830133627 | 18 | 342 | 1.6 | 1.6 | 0.00 | 0.00 | 0.00 | 89 | 1019.9 |
| 20260830133122 | 19 | 45 | 0.0 | 0.0 | 0.00 | 0.00 | 0.00 | 83 | 1019.5 |
| 20260830132619 | 19 | 45 | 0.0 | 0.0 | 0.00 | 0.00 | 0.00 | 80 | 1019.8 |
| 20260830132114 | 19 | 45 | 0.0 | 0.0 | 0.00 | 0.00 | 0.00 | 83 | 1019.9 |
| 20260830131613 | 19 | 45 | 0.0 | 0.0 | 0.00 | 0.00 | 0.00 | 81 | 1019.9 |
| 20260830131107 | 18 | 45 | 0.0 | 0.0 | 0.00 | 0.00 | 0.00 | 80 | 1019.9 |
| 20260830130602 | 18 | 45 | 0.0 | 0.0 | 0.00 | 0.00 | 0.00 | 83 | 1019.9 |
| 20260830130057 | 18 | 45 | 0.0 | 0.0 | 0.00 | 0.00 | 0.00 | 84 | 1020.0 |
| 20260830125551 | 17 | 45 | 0.0 | 0.0 | 0.00 | 0.00 | 0.00 | 85 | 1019.8 |
| 20260830125051 | 17 | 45 | 1.6 | 1.6 | 0.00 | 0.00 | 0.00 | 87 | 1020.0 |
| 20260830124550 | 16 | 45 | 1.6 | 1.6 | 0.00 | 0.00 | 0.00 | 87 | 1020.1 |
| 20260830124045 | 16 | 44 | 0.0 | 1.6 | 0.00 | 0.00 | 0.00 | 90 | 1020.1 |
| 20260830123543 | 15 | 45 | 0.0 | 0.0 | 0.00 | 0.00 | 0.00 | 93 | 1020.3 |
| 20260830123038 | 15 | 51 | 0.0 | 1.6 | 0.00 | 0.00 | 0.00 | 98 | 1020.4 |
| 20260830122534 | 14 | 51 | 1.6 | 1.6 | 0.00 | 0.00 | 0.00 | 99 | 1020.4 |
| 20260830122030 | 14 | 51 | 1.6 | 3.2 | 0.00 | 0.00 | 0.00 | 99 | 1020.4 |
| 20260830121526 | 13 | 51 | 1.6 | 1.6 | 0.00 | 0.00 | 0.00 | 99 | 1020.7 |
| 20260830121025 | 13 | 51 | 0.0 | 0.0 | 0.00 | 0.00 | 0.00 | 99 | 1020.5 |
| 20260830120520 | 13 | 51 | 0.0 | 0.0 | 0.00 | 0.00 | 0.00 | 99 | 1020.4 |
| 20260830120017 | 12 | 51 | 0.0 | 1.6 | 0.00 | 0.00 | 0.00 | 99 | 1020.6 |
| 20260830115513 | 12 | 50 | 1.6 | 1.6 | 0.00 | 0.00 | 0.00 | 99 | 1020.5 |
| 20260830115008 | 12 | 50 | 0.0 | 1.6 | 0.00 | 0.00 | 0.00 | 99 | 1020.5 |
| 20260830114505 | 12 | 50 | 0.0 | 1.6 | 0.00 | 0.00 | 0.00 | 99 | 1020.7 |
| 20260830114004 | 12 | 50 | 0.0 | 0.0 | 0.00 | 0.00 | 0.00 | 99 | 1020.7 |
| 20260830113459 | 12 | 50 | 0.0 | 0.0 | 0.00 | 0.00 | 0.00 | 99 | 1020.8 |
| 20260830112954 | 12 | 50 | 0.0 | 0.0 | 0.00 | 0.00 | 0.00 | 99 | 1020.9 |
| 20260830112450 | 12 | 50 | 0.0 | 0.0 | 0.00 | 0.00 | 0.00 | 99 | 1020.7 |
| 20260830111947 | 11 | 50 | 0.0 | 0.0 | 0.00 | 0.00 | 0.00 | 99 | 1020.9 |
| 20260830111442 | 11 | 50 | 0.0 | 0.0 | 0.00 | 0.00 | 0.00 | 99 | 1021.1 |
| 20260830110937 | 11 | 50 | 0.0 | 0.0 | 0.00 | 0.00 | 0.00 | 99 | 1021.1 |